Regional Weather Roundup
Issued by NWS

Home | Current Version | Previous Version | Graphics & Text | Print | Product List | Glossary On
Versions: 1 2 3 4 5 6 7 8 9 10 11 12 13 14 15 16 17 18 19 20 21 22 23 24 25 26 27 28 29 30 31 32 33 34 35 36 37 38 39 40 41 42 43 44 45 46 47 48 49 50
000
ASUS45 KABQ 300301
RWRNM
WEATHER ROUNDUP FOR NEW MEXICO
NATIONAL WEATHER SERVICE ALBUQUERQUE NM
800 PM MST THU JAN 29 2015

NOTE: "FAIR" MEANS FEW OR NO CLOUDS BELOW 12,000 FEET AGL WITH NO
       SIGNIFICANT WEATHER OR OBSTRUCTIONS TO VISION.

      THIS PRODUCT IS RELEASED AS TWO VERSIONS.  ONE VERSION NEAR
      THE TOP OF THE HOUR CONTAINING PRELIMINARY DATA FROM ALBUQUERQUE
      AND OTHER STATIONS.  A FINAL VERSION WITH ADDITIONAL DATA IS
      ISSUED ABOUT 10 MINUTES AFTER THE HOUR.

NMZ501-503-504-510>518-300400-
NORTHWEST PLATEAU/NORTHCENTRAL MOUNTAINS

CITY           SKY/WX    TMP DP  RH WIND       PRES   REMARKS
FARMINGTON     CLOUDY    47  28  47 E10       30.30S
SANTA FE       CLOUDY    38  15  39 SE17G24   30.44R WCI  28
TAOS           MOCLDY    36  25  64 SE7       30.43S WCI  30

$$
NMZ402-403-502-505>509-300400-
WESTCENTRAL MOUNTAINS/SOUTHWEST MOUNTAINS

CITY           SKY/WX    TMP DP  RH WIND       PRES   REMARKS
GALLUP         CLOUDY    44  28  53 E6        30.29R
SILVER CITY    LGT RAIN  45  39  81 SE12      30.33R

$$
NMZ407-409-411-412-300400-
SOUTHERN DESERTS

CITY           SKY/WX    TMP DP  RH WIND       PRES   REMARKS
DEMING         RAIN      46  40  79 E14       30.31R
HOLLOMAN AFB   CLOUDY    51  37  60 W10       30.33R
ALAMOGORDO     MOCLDY    50  36  57 CALM      30.33S
T OR C         CLOUDY    50  30  46 NE15      30.33R

$$
NMZ519>523-300400-
CENTRAL VALLEYS/CENTRAL HIGHLANDS

CITY           SKY/WX    TMP DP  RH WIND       PRES   REMARKS
ALBUQUERQUE    CLOUDY    44  20  38 E23G35    30.40R
DOUBLE EAGLE   CLOUDY    41  19  42 E16G28    30.42R
CLINES CORNERS CLOUDY    32  17  54 E18G26    30.45R WCI  20
BELEN          CLOUDY    46  24  43 SE12      30.39R
SOCORRO        NOT AVBL

$$
NMZ524>526-539-540-300400-
SOUTHCENTRAL MOUNTAINS

CITY           SKY/WX    TMP DP  RH WIND       PRES   REMARKS
RUIDOSO        NOT AVBL

$$
NMZ527>531-300400-
NORTHEAST HIGHLANDS/NORTHEAST PLAINS

CITY           SKY/WX    TMP DP  RH WIND       PRES   REMARKS
LAS VEGAS      CLOUDY    33  23  66 S8        30.50R WCI  26
RATON          CLOUDY    36  24  62 S9        30.47R WCI  29
CLAYTON        CLOUDY    41  24  51 CALM      30.47S

$$
NMZ532>537-300400-
EASTCENTRAL PLAINS

CITY           SKY/WX    TMP DP  RH WIND       PRES   REMARKS
TUCUMCARI      CLOUDY    43  29  57 SW3       30.48S
CANNON AFB     CLOUDY    39  28  64 NE5       30.49R
CLOVIS AIRPORT CLOUDY    39  27  60 CALM      30.50R

$$
NMZ028-029-538-300400-
SOUTHEAST PLAINS

CITY           SKY/WX    TMP DP  RH WIND       PRES   REMARKS
ROSWELL        CLOUDY    49  27  42 E7        30.47R
ARTESIA        CLOUDY    50  28  43 E8        30.48R
CARLSBAD       CLOUDY    53  26  35 E12       30.46R
HOBBS          CLOUDY    48  25  40 NE10      30.49R


$$


USA.gov is the U.S. government's official web portal to all federal, state and local government web resources and services.